TimeCDT,TemperatureF,Dew PointF,Humidity,Sea Level PressureIn,VisibilityMPH,Wind Direction,Wind SpeedMPH,Gust SpeedMPH,PrecipitationIn,Events,Conditions,WindDirDegrees,DateUTC
12:15 AM,59.0,53.6,82,30.19,10.0,South,3.5,-,N/A,,Clear,190,2013-07-30 05:15:00
12:35 AM,57.2,53.6,88,30.19,10.0,Calm,Calm,-,N/A,,Clear,0,2013-07-30 05:35:00
12:55 AM,57.2,53.6,88,30.19,10.0,SSE,3.5,-,N/A,,Clear,160,2013-07-30 05:55:00
1:15 AM,57.2,53.6,88,30.19,10.0,Calm,Calm,-,N/A,,Clear,0,2013-07-30 06:15:00
1:35 AM,55.4,51.8,88,30.19,10.0,Calm,Calm,-,N/A,,Clear,0,2013-07-30 06:35:00
1:55 AM,55.4,53.6,94,30.19,10.0,East,3.5,-,N/A,,Clear,90,2013-07-30 06:55:00
2:15 AM,55.4,51.8,88,30.20,10.0,ESE,3.5,-,N/A,,Clear,120,2013-07-30 07:15:00
2:35 AM,55.4,51.8,88,30.20,10.0,Calm,Calm,-,N/A,,Clear,0,2013-07-30 07:35:00
2:55 AM,55.4,51.8,88,30.20,10.0,Calm,Calm,-,N/A,,Clear,0,2013-07-30 07:55:00
3:15 AM,55.4,51.8,88,30.20,10.0,Calm,Calm,-,N/A,,Clear,0,2013-07-30 08:15:00
3:35 AM,53.6,51.8,94,30.19,10.0,East,3.5,-,N/A,,Clear,80,2013-07-30 08:35:00
3:55 AM,53.6,50.0,88,30.19,10.0,Calm,Calm,-,N/A,,Clear,0,2013-07-30 08:55:00
4:15 AM,53.6,50.0,88,30.20,10.0,Calm,Calm,-,N/A,,Clear,0,2013-07-30 09:15:00
4:35 AM,53.6,50.0,88,30.19,10.0,Calm,Calm,-,N/A,,Clear,0,2013-07-30 09:35:00
4:55 AM,53.6,50.0,88,30.20,10.0,Calm,Calm,-,N/A,,Clear,0,2013-07-30 09:55:00
5:15 AM,53.6,50.0,88,30.20,10.0,SE,3.5,-,N/A,,Clear,130,2013-07-30 10:15:00
5:35 AM,53.6,48.2,82,30.20,10.0,Calm,Calm,-,N/A,,Clear,0,2013-07-30 10:35:00
5:55 AM,53.6,50.0,88,30.20,10.0,SE,3.5,-,N/A,,Clear,140,2013-07-30 10:55:00
6:15 AM,55.4,51.8,88,30.22,10.0,Calm,Calm,-,N/A,,Clear,0,2013-07-30 11:15:00
6:35 AM,55.4,53.6,94,30.21,10.0,Calm,Calm,-,N/A,,Clear,0,2013-07-30 11:35:00
6:55 AM,59.0,55.4,88,30.21,10.0,Calm,Calm,-,N/A,,Clear,0,2013-07-30 11:55:00
7:15 AM,60.8,55.4,82,30.21,10.0,Calm,Calm,-,N/A,,Clear,0,2013-07-30 12:15:00
7:35 AM,62.6,57.2,82,30.21,10.0,SSE,4.6,-,N/A,,Clear,160,2013-07-30 12:35:00
7:55 AM,64.4,57.2,77,30.21,10.0,SSE,5.8,-,N/A,,Clear,150,2013-07-30 12:55:00
8:15 AM,66.2,57.2,73,30.22,10.0,SSE,5.8,-,N/A,,Clear,160,2013-07-30 13:15:00
8:35 AM,69.8,59.0,68,30.22,10.0,SSE,4.6,-,N/A,,Clear,160,2013-07-30 13:35:00
8:55 AM,69.8,59.0,68,30.21,10.0,SSE,6.9,-,N/A,,Clear,150,2013-07-30 13:55:00
9:15 AM,71.6,59.0,64,30.20,10.0,SSE,6.9,-,N/A,,Scattered Clouds,150,2013-07-30 14:15:00
9:35 AM,71.6,59.0,64,30.21,10.0,SSE,5.8,-,N/A,,Overcast,150,2013-07-30 14:35:00
9:55 AM,73.4,57.2,57,30.21,10.0,South,8.1,-,N/A,,Overcast,180,2013-07-30 14:55:00
10:15 AM,73.4,59.0,61,30.20,10.0,South,5.8,-,N/A,,Overcast,180,2013-07-30 15:15:00
10:35 AM,75.2,57.2,53,30.20,10.0,South,8.1,-,N/A,,Mostly Cloudy,170,2013-07-30 15:35:00
10:55 AM,75.2,57.2,53,30.20,10.0,South,6.9,-,N/A,,Mostly Cloudy,170,2013-07-30 15:55:00
11:15 AM,75.2,57.2,53,30.20,10.0,South,5.8,-,N/A,,Scattered Clouds,170,2013-07-30 16:15:00
11:35 AM,75.2,57.2,53,30.19,10.0,SSE,6.9,-,N/A,,Scattered Clouds,160,2013-07-30 16:35:00
11:55 AM,75.2,55.4,50,30.19,10.0,South,6.9,-,N/A,,Mostly Cloudy,190,2013-07-30 16:55:00
12:15 PM,75.2,57.2,53,30.19,10.0,South,5.8,-,N/A,,Overcast,180,2013-07-30 17:15:00
12:35 PM,75.2,57.2,53,30.18,10.0,South,8.1,-,N/A,,Overcast,190,2013-07-30 17:35:00
12:55 PM,75.2,57.2,53,30.18,10.0,South,6.9,-,N/A,,Overcast,180,2013-07-30 17:55:00
1:15 PM,73.4,59.0,61,30.17,10.0,South,5.8,-,N/A,,Overcast,190,2013-07-30 18:15:00
1:35 PM,75.2,59.0,57,30.17,10.0,SSW,5.8,-,N/A,,Mostly Cloudy,200,2013-07-30 18:35:00
1:55 PM,73.4,57.2,57,30.17,10.0,South,5.8,-,N/A,,Partly Cloudy,180,2013-07-30 18:55:00
2:15 PM,73.4,59.0,61,30.17,10.0,SSW,5.8,-,N/A,,Clear,200,2013-07-30 19:15:00
2:35 PM,73.4,59.0,61,30.17,10.0,South,5.8,-,N/A,,Mostly Cloudy,170,2013-07-30 19:35:00
2:55 PM,73.4,60.8,65,30.16,10.0,South,5.8,-,N/A,,Mostly Cloudy,170,2013-07-30 19:55:00
3:15 PM,73.4,60.8,65,30.15,10.0,South,6.9,-,N/A,,Scattered Clouds,170,2013-07-30 20:15:00
3:35 PM,73.4,60.8,65,30.16,10.0,South,4.6,-,N/A,,Overcast,180,2013-07-30 20:35:00
3:55 PM,73.4,59.0,61,30.15,10.0,SSE,5.8,-,N/A,,Overcast,160,2013-07-30 20:55:00
4:15 PM,73.4,60.8,65,30.14,10.0,South,5.8,-,N/A,,Overcast,180,2013-07-30 21:15:00
4:35 PM,71.6,60.8,69,30.14,10.0,South,5.8,-,N/A,,Mostly Cloudy,180,2013-07-30 21:35:00
4:55 PM,71.6,60.8,69,30.14,10.0,South,5.8,-,N/A,,Mostly Cloudy,180,2013-07-30 21:55:00
5:15 PM,71.6,60.8,69,30.13,10.0,South,4.6,-,N/A,,Mostly Cloudy,180,2013-07-30 22:15:00
5:35 PM,71.6,60.8,69,30.13,10.0,SSE,4.6,-,N/A,,Scattered Clouds,160,2013-07-30 22:35:00
5:55 PM,69.8,62.6,78,30.13,10.0,East,3.5,-,N/A,,Scattered Clouds,100,2013-07-30 22:55:00
6:15 PM,69.8,62.6,78,30.13,10.0,Calm,Calm,-,N/A,,Mostly Cloudy,0,2013-07-30 23:15:00
6:35 PM,69.8,62.6,78,30.13,10.0,ESE,3.5,-,N/A,,Scattered Clouds,110,2013-07-30 23:35:00
6:55 PM,69.8,62.6,78,30.13,10.0,SE,4.6,-,N/A,,Clear,130,2013-07-30 23:55:00
7:15 PM,68.0,62.6,83,30.12,10.0,ESE,4.6,-,N/A,,Scattered Clouds,110,2013-07-31 00:15:00
7:35 PM,66.2,62.6,88,30.12,10.0,East,4.6,-,N/A,,Mostly Cloudy,90,2013-07-31 00:35:00
7:55 PM,66.2,62.6,88,30.12,10.0,ENE,4.6,-,0.01,,Overcast,60,2013-07-31 00:55:00
8:15 PM,66.2,62.6,88,30.11,10.0,East,4.6,-,0.01,,Scattered Clouds,90,2013-07-31 01:15:00
8:35 PM,66.2,62.6,88,30.11,10.0,East,4.6,-,0.01,,Clear,90,2013-07-31 01:35:00
8:55 PM,66.2,62.6,88,30.11,10.0,East,5.8,-,0.01,,Partly Cloudy,100,2013-07-31 01:55:00
9:15 PM,66.2,62.6,88,30.11,10.0,SE,6.9,-,N/A,,Clear,130,2013-07-31 02:15:00
9:35 PM,66.2,62.6,88,30.11,10.0,SE,8.1,-,N/A,,Clear,130,2013-07-31 02:35:00
9:55 PM,66.2,62.6,88,30.11,10.0,SE,5.8,-,N/A,,Clear,130,2013-07-31 02:55:00
10:15 PM,66.2,62.6,88,30.11,10.0,East,3.5,-,N/A,,Scattered Clouds,90,2013-07-31 03:15:00
10:35 PM,64.4,62.6,94,30.11,7.0,East,5.8,-,N/A,,Mostly Cloudy,100,2013-07-31 03:35:00
10:55 PM,64.4,62.6,94,30.10,9.0,ESE,4.6,-,N/A,,Scattered Clouds,110,2013-07-31 03:55:00
11:15 PM,64.4,62.6,94,30.10,8.0,East,4.6,-,N/A,,Mostly Cloudy,100,2013-07-31 04:15:00
11:35 PM,66.2,62.6,88,30.11,8.0,Calm,Calm,-,N/A,,Overcast,0,2013-07-31 04:35:00
11:55 PM,66.2,62.6,88,30.11,9.0,SE,4.6,-,N/A,,Overcast,130,2013-07-31 04:55:00